Date,TemperatureHighF,TemperatureAvgF,TemperatureLowF,DewpointHighF,DewpointAvgF,DewpointLowF,HumidityHigh,HumidityAvg,HumidityLow,PressureMaxIn,PressureMinIn,WindSpeedMaxMPH,WindSpeedAvgMPH,GustSpeedMaxMPH,PrecipitationSumIn
2013-1-1,56,47,36,39,35,30,77,63,46,30.12,29.98,4,0,4,0.00
2013-1-2,53,42,32,41,35,28,87,76,60,30.07,29.92,4,1,4,0.00
2013-1-3,52,42,33,45,37,30,89,81,67,30.12,29.98,5,1,5,0.00
2013-1-4,54,44,35,46,39,32,89,81,69,30.12,30.01,4,1,4,0.00
2013-1-5,58,50,41,52,46,39,92,86,71,30.12,29.92,6,1,7,0.37
2013-1-6,54,48,39,50,45,37,95,88,74,30.03,29.92,8,1,8,0.12
2013-1-7,52,44,36,48,42,36,97,92,81,30.09,29.98,4,1,4,0.00
2013-1-8,55,47,39,52,45,39,98,93,81,30.07,29.95,4,1,4,0.00
2013-1-9,55,48,42,52,46,39,98,90,80,29.98,29.86,3,0,3,0.00
2013-1-10,53,44,36,46,38,32,95,79,60,30.03,29.89,0,0,0,0.00
2013-1-11,51,42,32,43,36,30,97,81,68,30.12,29.98,0,0,0,0.00
2013-1-12,50,41,34,48,38,30,98,88,72,30.12,29.98,0,0,0,0.00
2013-1-13,49,38,29,37,30,25,88,72,49,30.09,29.98,0,0,0,0.00
2013-1-14,48,38,29,32,27,21,78,66,50,30.24,30.03,0,0,0,0.00
2013-1-15,50,40,31,37,30,23,81,70,56,30.30,30.18,4,1,5,0.00
2013-1-16,54,42,32,41,34,27,85,72,55,30.27,30.03,5,1,5,0.00
2013-1-17,60,47,35,46,38,30,87,72,54,30.07,29.89,5,1,5,0.00
2013-1-18,60,48,37,46,39,34,85,71,56,30.03,29.92,3,1,3,0.00
2013-1-19,61,48,37,46,38,32,81,68,52,30.03,29.92,4,1,4,0.00
2013-1-20,67,50,36,45,36,30,78,61,35,30.03,29.89,6,1,6,0.00
2013-1-21,62,49,36,43,36,30,76,61,45,29.98,29.86,4,1,4,0.00
2013-1-22,64,50,37,43,36,30,74,59,42,29.92,29.83,3,1,4,0.00
2013-1-23,58,52,48,48,43,36,86,69,58,29.92,29.80,4,1,4,0.05
2013-1-24,59,54,50,55,52,48,98,89,80,30.03,29.86,1,0,1,0.04
2013-1-25,68,58,51,64,55,50,98,90,77,30.03,29.83,0,0,0,0.00
2013-1-26,66,53,43,57,46,37,96,79,57,29.95,29.80,1,0,2,0.00
2013-1-27,61,47,36,48,38,34,89,72,49,30.01,29.92,5,1,7,0.00
2013-1-28,60,46,36,46,37,32,85,73,46,30.07,30.01,8,2,8,0.00
2013-1-29,54,49,42,45,42,38,87,78,71,30.21,30.09,3,0,3,0.00
2013-1-30,56,47,38,47,41,36,94,82,67,30.21,30.09,4,1,4,0.00
2013-2-16,51,48,46,43,41,39,75,73,71,29.92,29.92,1,0,2,0.00
2013-2-17,60,50,42,48,43,37,87,77,64,29.92,29.80,5,1,6,0.00
2013-2-18,59,49,39,48,42,36,89,75,62,29.92,29.83,8,1,8,0.00
2013-2-19,53,45,34,48,40,30,88,80,68,29.86,29.62,8,1,12,0.29
2013-2-20,57,44,31,48,37,27,92,76,60,29.92,29.68,6,1,6,0.00
2013-2-21,60,47,35,50,37,32,90,69,48,30.03,29.92,10,1,11,0.00
2013-2-22,62,47,35,48,40,30,84,75,60,30.09,30.01,6,1,6,0.00
2013-2-23,69,52,42,55,39,32,88,63,40,30.09,29.95,10,2,10,0.00
2013-2-24,66,50,39,43,32,25,63,51,40,30.09,29.98,6,1,9,0.00
2013-2-25,56,48,35,45,37,27,75,65,54,30.12,29.98,6,1,6,0.00
2013-2-26,57,50,41,45,38,34,72,64,55,30.03,29.92,6,1,6,0.00
2013-2-27,58,50,41,46,39,30,72,64,53,30.21,30.03,3,1,4,0.00
2013-2-28,59,52,45,50,44,37,78,72,64,30.30,30.18,4,0,4,0.00
2013-3-1,63,56,48,52,48,43,80,73,63,30.27,30.03,6,1,6,0.00
2013-3-2,64,57,52,52,48,45,78,72,57,30.07,29.92,4,1,5,0.00
2013-3-3,60,56,53,52,49,46,81,77,70,29.98,29.89,6,1,10,0.00
2013-3-4,58,54,51,48,46,43,80,73,67,30.01,29.92,8,1,9,0.00
2013-3-5,59,54,50,45,43,41,76,67,58,29.95,29.80,7,2,7,0.13
2013-3-6,60,54,48,50,46,39,87,74,64,29.92,29.77,10,1,12,0.21
2013-3-7,59,52,46,48,43,39,77,71,57,29.86,29.71,8,1,9,0.13
2013-3-8,62,54,48,50,44,39,80,67,52,29.95,29.68,8,2,10,0.03
2013-3-9,60,51,45,46,41,37,75,68,58,30.07,29.92,5,1,5,0.00
2013-3-11,64,57,49,48,47,43,77,68,53,30.09,29.92,4,1,7,0.00
2013-3-12,63,53,45,52,46,39,83,75,60,30.01,29.89,4,0,4,0.00
2013-3-13,68,56,46,55,48,43,84,74,62,30.01,29.89,5,0,6,0.00
2013-3-14,62,55,49,54,49,45,86,79,70,30.01,29.92,4,0,4,0.00
2013-3-15,64,54,45,54,49,43,88,80,60,29.98,29.86,4,1,4,0.00
2013-3-16,60,54,49,54,49,45,89,83,75,29.95,29.86,5,0,6,0.00
2013-3-17,62,52,43,52,46,41,89,79,54,29.98,29.86,4,0,4,0.00
2013-3-18,59,51,43,50,46,39,86,79,69,29.98,29.86,6,1,12,0.00
2013-3-19,62,54,46,54,48,43,98,81,65,29.98,29.92,6,1,8,0.09
2013-3-20,61,56,52,59,55,52,98,96,91,29.98,29.92,4,0,6,0.00
2013-3-21,60,55,48,55,49,43,95,79,62,29.95,29.80,5,1,9,0.00
2013-3-22,63,52,42,50,41,34,86,67,36,29.92,29.80,8,1,9,0.00
2013-3-23,61,51,41,50,42,34,80,68,59,29.95,29.83,3,0,3,0.00
2013-3-24,60,52,42,48,43,36,79,73,57,29.92,29.80,2,0,2,0.00
2013-3-25,59,52,46,50,45,41,86,76,60,29.89,29.77,3,0,4,0.00
2013-3-26,60,52,46,52,46,41,83,77,69,29.86,29.77,6,3,6,0.00
2013-3-27,64,56,47,54,49,43,85,78,68,29.86,29.80,7,1,7,0.00
2013-3-28,63,58,53,59,54,48,91,85,80,29.92,29.86,6,1,8,0.04
2013-3-29,63,56,48,55,51,45,88,82,73,29.92,29.86,5,1,6,0.00
2013-3-30,63,58,54,55,53,50,94,82,70,29.95,29.83,6,2,8,0.21
2013-3-31,65,58,54,59,55,54,98,87,74,29.92,29.83,11,1,11,0.08
2013-4-1,62,58,53,61,56,48,98,91,82,29.98,29.89,6,1,6,0.21
2013-4-2,63,56,49,55,51,46,88,83,73,30.03,29.89,7,1,8,0.00
2013-4-3,61,56,53,55,52,48,89,83,78,29.98,29.83,8,1,8,0.00
2013-4-4,63,57,52,59,54,50,95,90,84,29.98,29.89,6,1,6,0.21
2013-4-5,65,59,54,59,55,48,93,85,75,30.03,29.92,8,1,8,0.00
2013-4-6,64,58,51,55,52,48,87,82,75,30.03,29.95,9,1,9,0.00
2013-4-7,65,59,54,55,52,48,85,77,69,30.01,29.74,10,2,11,0.04
2013-4-8,65,56,48,54,41,34,93,58,33,29.83,29.68,11,3,20,0.16
2013-4-9,72,62,52,41,38,34,59,41,25,29.89,29.77,15,3,15,0.00
2013-4-10,67,59,50,52,44,39,65,57,45,29.95,29.80,4,1,4,0.00
2013-4-13,54,52,51,54,53,52,98,98,97,29.74,29.74,2,0,2,0.00
2013-4-14,63,54,45,54,48,43,98,79,51,29.77,29.65,7,1,11,0.00
2013-4-15,62,54,48,48,40,32,81,58,40,29.80,29.71,13,3,17,0.00
2013-4-16,65,53,40,45,35,30,72,51,30,29.92,29.80,10,2,11,0.00
2013-4-17,68,57,45,36,32,30,57,40,25,30.07,29.92,10,2,14,0.00
2013-4-18,61,54,45,55,40,30,98,62,46,30.09,29.98,6,1,6,0.00
2013-4-19,62,54,46,52,48,43,98,81,65,30.07,29.92,5,1,6,0.00
2013-4-20,64,56,48,52,48,43,81,72,60,29.92,29.80,6,1,6,0.00
2013-4-21,65,57,48,54,48,41,76,70,60,29.86,29.74,5,1,5,0.00
2013-4-22,65,58,50,54,49,43,77,71,64,29.80,29.71,5,1,7,0.00
2013-4-23,62,57,53,52,49,48,83,76,68,29.83,29.71,7,1,8,0.00
2013-4-24,62,56,53,52,49,46,81,76,67,29.80,29.68,6,1,6,0.00
2013-4-25,65,58,51,54,50,46,81,73,64,29.95,29.80,8,2,8,0.00
2013-4-26,63,55,47,59,50,43,98,80,64,30.07,29.95,6,1,6,0.00
2013-4-27,62,56,52,55,52,50,98,88,72,30.07,29.92,4,1,6,0.00
2013-4-28,61,56,51,54,51,48,87,82,72,29.92,29.74,4,0,6,0.00
2013-4-29,68,59,50,57,52,46,86,77,66,29.74,29.56,3,0,4,0.00
2013-4-30,63,57,51,59,52,46,94,82,74,29.68,29.59,6,1,6,0.00
2013-5-1,62,57,51,54,51,46,87,80,73,29.92,29.68,6,1,7,0.00
2013-5-2,69,61,51,57,52,46,83,72,60,29.95,29.89,5,1,6,0.00
2013-5-3,70,61,53,52,49,43,73,65,52,29.92,29.65,4,1,6,0.00
2013-5-4,63,58,51,54,49,43,76,73,70,29.65,29.50,8,2,11,0.00
2013-5-5,66,59,53,54,50,46,79,71,58,29.65,29.50,6,1,6,0.00
2013-5-6,66,60,55,55,52,48,78,71,66,29.80,29.65,6,2,8,0.04
2013-5-7,60,59,58,52,51,50,73,72,71,29.80,29.80,3,0,4,0.00
2013-5-8,64,60,55,57,53,48,91,78,71,29.98,29.92,6,2,8,0.00
2013-5-9,64,58,54,55,51,48,81,74,64,30.01,29.92,6,1,6,0.00
2013-5-10,65,59,52,55,51,46,80,73,65,30.03,29.92,6,1,6,0.00
2013-5-11,66,59,54,57,52,48,83,76,69,29.98,29.89,4,0,4,0.00
2013-5-12,66,59,52,57,52,46,83,77,70,29.98,29.83,3,0,4,0.00
2013-5-13,68,60,54,64,55,50,98,83,62,29.92,29.80,6,1,6,0.00
2013-5-14,64,59,55,55,53,48,96,81,68,29.89,29.80,2,1,2,0.00
2013-5-15,55,53,51,48,47,46,81,80,79,29.92,29.89,2,2,2,0.00
2013-5-17,63,59,57,48,46,46,66,62,55,29.92,29.86,1,1,1,0.00
2013-5-18,67,59,48,52,47,41,74,65,53,29.98,29.92,2,1,2,0.00
2013-5-19,69,61,51,55,50,43,75,67,57,29.95,29.77,1,1,1,0.00
2013-5-20,69,60,50,55,50,43,75,69,55,29.86,29.74,5,1,6,0.00
2013-5-21,71,60,54,54,47,37,78,62,36,29.86,29.71,7,1,9,0.00
2013-5-22,67,57,46,46,39,34,65,50,36,29.86,29.68,0,0,0,0.00
2013-5-23,66,57,44,50,42,32,73,56,45,29.86,29.77,0,0,0,0.00
2013-5-24,64,57,46,50,44,37,71,62,49,29.86,29.77,0,0,0,0.00
2013-5-25,65,57,47,52,45,37,70,62,54,29.92,29.83,0,0,0,0.00
2013-5-26,66,59,51,54,49,41,73,68,65,29.98,29.89,0,0,0,0.00
2013-5-27,66,60,52,55,51,45,75,72,69,29.98,29.86,0,0,0,0.00
2013-5-28,69,63,58,59,54,50,80,73,64,29.86,29.71,0,0,0,0.00
2013-5-29,70,63,55,59,52,46,74,67,53,29.80,29.68,0,0,0,0.00
2013-5-30,67,60,50,64,52,41,96,76,57,29.83,29.74,0,0,0,0.00
2013-5-31,66,59,49,57,53,46,94,79,66,29.83,29.71,0,0,0,0.00
2013-6-1,69,60,52,55,52,46,77,71,57,29.80,29.59,0,0,0,0.00
2013-6-2,65,59,52,55,51,46,82,73,65,29.65,29.56,0,0,0,0.00
2013-6-3,68,61,56,59,53,50,98,75,61,29.74,29.59,0,0,0,0.00
2013-6-4,68,59,52,63,55,48,98,86,67,29.83,29.71,0,0,0,0.00
2013-6-5,66,59,52,59,54,50,94,83,70,29.86,29.77,0,0,0,0.00
2013-6-6,66,60,56,55,53,52,83,76,67,29.80,29.74,0,0,0,0.00
2013-6-7,68,60,55,57,53,52,88,78,67,29.77,29.59,0,0,0,0.00
2013-6-8,69,61,56,57,54,52,85,77,66,29.71,29.62,0,0,0,0.00
2013-6-9,69,62,58,59,57,54,93,83,70,29.74,29.68,0,0,1,0.00
2013-6-10,71,64,58,59,56,54,97,78,64,29.80,29.71,0,0,0,0.00
2013-6-11,70,63,58,59,54,52,81,73,62,29.80,29.71,0,0,0,0.00
2013-6-12,58,56,54,52,50,48,80,78,76,29.77,29.77,0,0,0,0.00
2013-6-20,66,62,58,50,48,46,63,59,56,29.80,29.80,0,0,0,0.00
2013-6-21,71,62,51,59,50,43,98,64,49,29.80,29.71,0,0,0,0.00
2013-6-22,71,61,50,59,54,48,98,80,62,29.80,29.68,0,0,0,0.00
2013-6-23,68,61,56,59,56,52,91,82,74,29.74,29.65,0,0,0,0.00
2013-6-24,64,61,59,63,60,57,98,95,91,29.77,29.65,0,0,0,0.13
2013-6-25,69,63,59,66,61,59,98,92,84,29.86,29.74,0,0,0,0.13
2013-6-26,74,67,61,68,62,57,95,84,71,29.86,29.77,0,0,0,0.04
2013-6-27,75,67,59,64,59,55,90,76,66,29.89,29.80,0,0,0,0.00
2013-6-28,74,65,58,61,58,54,98,77,64,29.83,29.71,0,0,0,0.00
2013-6-29,72,64,56,64,59,55,98,83,70,29.77,29.62,0,0,0,0.00
2013-6-30,73,65,56,61,57,52,84,73,63,29.68,29.59,0,0,0,0.00
2013-7-1,76,66,58,63,57,52,98,75,58,29.71,29.62,0,0,0,0.00
2013-7-2,73,65,58,66,62,57,98,89,74,29.77,29.68,0,0,0,0.00
2013-7-3,70,64,60,64,61,57,98,87,73,29.77,29.62,0,0,0,0.00
2013-7-4,72,65,60,61,58,54,89,79,67,29.65,29.56,0,0,0,0.00
2013-7-5,70,63,56,59,55,50,88,74,63,29.68,29.56,0,0,0,0.00
2013-7-6,68,62,57,57,54,50,84,75,63,29.68,29.62,0,0,0,0.00
2013-7-7,68,62,58,57,53,52,80,72,64,29.71,29.65,0,0,0,0.00
2013-7-8,73,62,58,59,54,52,78,71,62,29.83,29.71,0,0,0,0.00
2013-7-9,70,62,55,57,54,50,83,74,65,29.86,29.77,0,0,0,0.00
2013-7-10,71,63,58,57,54,52,82,73,62,29.83,29.74,0,0,0,0.00
2013-7-11,70,63,58,57,53,50,80,70,62,29.80,29.74,0,0,0,0.00
2013-7-12,69,61,56,55,53,50,80,73,63,29.80,29.71,0,0,0,0.00
2013-7-13,70,61,55,57,53,50,83,74,63,29.83,29.77,0,0,0,0.00
2013-7-14,68,61,56,57,53,50,84,76,67,29.86,29.74,0,0,0,0.00
2013-7-15,70,61,56,61,55,52,98,79,64,29.80,29.68,0,0,0,0.00
2013-7-16,68,62,58,61,58,54,98,87,74,29.86,29.74,0,0,0,0.17
2013-7-17,70,63,57,61,56,54,87,79,70,29.92,29.83,0,0,0,0.00
2013-7-18,69,61,56,59,55,52,88,80,69,29.92,29.77,0,0,0,0.00
2013-7-19,69,61,56,59,54,52,86,78,67,29.80,29.68,0,0,0,0.00
2013-7-20,68,60,56,57,54,52,84,77,67,29.71,29.65,0,0,0,0.00
2013-7-21,68,61,57,57,54,52,83,76,67,29.74,29.62,0,0,0,0.00
2013-7-22,71,65,59,61,57,54,84,75,66,29.80,29.74,0,0,0,0.00
2013-7-23,73,65,61,61,57,54,83,73,62,29.83,29.74,0,0,0,0.00
2013-7-24,71,64,59,59,56,54,86,75,63,29.83,29.74,0,0,0,0.00
2013-7-25,70,63,58,57,55,54,86,76,64,29.89,29.80,0,0,0,0.00
2013-7-26,70,63,58,57,55,54,84,76,65,29.95,29.86,0,0,0,0.00
2013-7-27,70,63,58,59,55,52,85,76,63,29.89,29.71,0,0,0,0.00
2013-7-28,70,62,58,57,54,52,83,74,62,29.77,29.68,0,0,0,0.00
2013-7-29,69,63,59,57,53,52,75,70,63,29.86,29.71,0,0,0,0.00
2013-7-30,68,63,59,64,56,50,94,77,69,29.92,29.86,0,0,0,0.00
2013-7-31,68,62,57,59,56,52,84,78,70,29.95,29.83,0,0,0,0.00
2013-8-1,70,63,54,59,55,50,88,75,64,29.92,29.77,0,0,0,0.00
2013-8-2,67,59,52,57,53,48,86,78,69,29.83,29.74,0,0,0,0.00
2013-8-3,67,60,56,57,53,52,87,78,68,29.86,29.77,0,0,0,0.00
2013-8-4,68,60,57,57,54,52,84,78,67,29.86,29.80,0,0,0,0.00
2013-8-5,67,60,55,57,54,52,86,78,68,29.86,29.77,0,0,0,0.00
2013-8-6,68,61,56,57,54,52,86,77,66,29.89,29.80,0,0,0,0.00
2013-8-7,69,63,59,59,55,54,81,75,63,29.95,29.86,0,0,0,0.00
2013-8-8,71,64,58,61,56,52,88,75,67,29.86,29.77,0,0,0,0.00
2013-8-9,59,59,59,54,53,52,79,78,77,29.80,29.77,0,0,0,0.00
2013-8-10,61,60,60,55,55,55,81,81,80,29.86,29.83,0,0,0,0.00
2013-8-11,72,62,58,66,56,54,95,80,65,29.89,29.74,0,0,0,0.00
2013-8-12,74,62,58,59,55,54,88,76,56,29.86,29.77,0,0,0,0.00
2013-8-13,72,62,55,57,54,52,87,76,56,29.83,29.74,0,0,0,0.00
2013-8-14,71,63,51,57,54,48,90,74,59,29.83,29.68,0,0,0,0.00
2013-8-15,59,57,56,55,54,54,90,86,83,29.77,29.74,0,0,0,0.00
2013-8-18,64,60,58,55,54,54,84,80,72,29.68,29.62,0,0,0,0.00
2013-8-19,72,64,58,59,56,54,86,74,56,29.77,29.68,0,0,0,0.00
2013-8-20,73,64,59,59,55,52,84,72,56,29.77,29.68,0,0,0,0.00
2013-8-21,70,63,58,55,54,52,83,71,58,29.80,29.68,0,0,0,0.00
2013-8-22,71,63,55,59,54,52,85,73,58,29.83,29.68,0,0,0,0.00
2013-8-23,71,63,55,57,54,50,84,73,56,29.77,29.59,0,0,0,0.00
2013-8-24,71,63,56,59,55,52,85,74,62,29.71,29.59,0,0,0,0.00
2013-8-25,75,66,57,61,57,54,89,74,62,29.74,29.68,0,0,0,0.00
2013-8-26,74,66,59,61,57,54,83,73,56,29.80,29.65,0,0,0,0.00
2013-8-27,73,64,53,57,55,50,88,72,51,29.71,29.59,0,0,0,0.00
2013-8-28,75,64,53,61,56,50,89,76,54,29.77,29.65,0,0,0,0.00
2013-8-29,75,66,60,63,58,55,89,76,58,29.83,29.74,0,0,0,0.00
2013-8-30,79,66,56,64,58,54,93,74,55,29.86,29.68,0,0,0,0.00
2013-8-31,73,65,58,61,56,54,88,75,60,29.80,29.68,0,0,0,0.00
2013-9-1,76,67,59,61,57,55,87,71,51,29.77,29.65,0,0,0,0.00
2013-9-2,78,69,63,63,59,55,82,70,57,29.77,29.65,0,0,0,0.00
2013-9-3,77,65,58,64,57,54,89,74,56,29.80,29.68,0,0,0,0.00
2013-9-4,78,66,55,61,55,52,87,68,50,29.86,29.68,0,0,0,0.00
2013-9-5,78,65,53,59,54,50,88,67,48,29.86,29.71,0,0,0,0.00
2013-9-6,76,64,53,59,53,48,86,67,51,29.83,29.59,0,0,0,0.00
2013-9-7,76,64,55,59,54,48,83,71,54,29.71,29.65,0,0,0,0.00
2013-9-8,73,64,59,59,56,54,86,76,58,29.74,29.62,0,0,0,0.00
2013-9-9,73,63,57,59,56,54,90,77,58,29.65,29.56,0,0,0,0.00
2013-9-10,70,63,58,59,56,55,90,79,64,29.74,29.62,0,0,0,0.00
2013-9-11,74,64,56,59,56,52,84,73,56,29.83,29.74,0,0,0,0.00
2013-9-12,58,57,56,54,52,52,84,83,82,29.80,29.80,0,0,0,0.00
2013-9-15,69,64,58,59,56,54,82,75,66,29.68,29.56,0,0,0,0.00
2013-9-16,78,63,53,61,56,50,92,76,56,29.74,29.56,0,0,0,0.00
2013-9-17,76,62,52,59,52,48,88,70,41,29.77,29.62,0,0,0,0.00
2013-9-18,72,64,55,57,52,48,78,66,54,29.74,29.59,0,0,0,0.00
2013-9-19,75,61,48,57,50,45,84,67,46,29.71,29.50,0,0,0,0.00
2013-9-20,73,61,50,57,52,45,84,73,54,29.71,29.59,0,0,0,0.00
2013-9-21,70,62,54,63,58,52,92,85,73,29.74,29.62,0,0,0,0.08
2013-9-22,69,59,48,57,52,46,94,80,63,29.83,29.71,0,0,0,0.00
2013-9-23,77,62,50,61,54,48,92,76,56,29.86,29.68,0,0,0,0.00
2013-9-24,77,64,54,61,52,46,91,68,43,29.83,29.68,0,0,0,0.00
2013-9-25,72,59,48,55,45,39,83,61,37,29.80,29.62,0,0,0,0.00
2013-9-26,70,57,45,52,46,39,83,66,51,29.80,29.62,0,0,0,0.00
2013-9-27,71,57,44,52,45,37,81,64,45,29.92,29.74,0,0,0,0.00
2013-9-28,74,60,46,50,44,37,70,57,36,29.92,29.74,0,0,0,0.00
2013-9-29,71,60,49,57,50,41,86,69,47,29.95,29.80,0,0,0,0.00
2013-9-30,72,62,53,59,55,50,91,78,64,29.92,29.68,0,0,0,0.00
2013-10-1,68,61,53,57,52,46,88,73,51,29.86,29.71,0,0,0,0.00
2013-10-2,67,56,48,54,49,45,88,75,57,29.86,29.74,0,0,0,0.00
2013-10-3,71,57,45,54,43,34,88,62,28,29.89,29.71,0,0,0,0.00
2013-10-4,72,59,45,46,38,32,64,47,33,29.89,29.77,0,0,0,0.00
2013-10-5,78,62,47,45,36,30,51,37,25,29.98,29.86,0,0,0,0.00
2013-10-6,78,61,48,43,35,28,47,37,26,29.92,29.80,0,0,0,0.00
2013-10-7,68,57,48,50,39,28,76,51,35,29.80,29.68,0,0,0,0.00
2013-10-8,66,55,47,52,48,41,85,74,57,29.74,29.56,0,0,0,0.00
2013-10-9,66,56,48,50,46,41,76,68,53,29.62,29.47,0,0,0,0.00
2013-10-10,66,54,45,52,46,39,85,74,57,29.86,29.59,0,0,0,0.00
2013-10-11,52,52,48,48,47,45,86,82,78,29.89,29.80,0,0,0,0.00
2013-10-12,51,50,48,46,46,45,86,84,83,29.86,29.83,0,0,0,0.00
2013-10-13,60,55,48,52,50,45,90,80,72,29.92,29.77,0,0,0,0.00
2013-10-14,68,55,43,52,46,41,89,72,48,29.95,29.77,0,0,0,0.00
2013-10-15,73,59,45,48,40,34,68,50,33,29.86,29.68,0,0,0,0.00
2013-10-16,71,59,48,45,38,32,56,44,36,29.89,29.80,0,0,0,0.00
2013-10-17,66,56,46,50,39,30,72,53,37,29.89,29.74,0,0,0,0.00
2013-10-18,67,54,44,50,43,34,82,65,45,29.86,29.77,0,0,0,0.00
2013-10-19,64,53,42,50,46,37,85,76,51,29.89,29.80,0,0,0,0.00
2013-10-20,60,54,48,52,48,45,87,80,70,29.89,29.74,0,0,0,0.00
2013-10-21,61,54,48,52,49,46,91,82,70,29.83,29.74,0,0,0,0.00
2013-10-22,63,55,50,52,49,46,89,80,65,29.86,29.74,0,0,0,0.00
2013-10-23,62,54,49,52,49,46,89,82,69,29.83,29.74,0,0,0,0.00
2013-10-24,61,54,47,52,48,45,89,81,68,29.95,29.83,0,0,0,0.00
2013-10-25,61,52,44,54,48,41,92,83,70,30.01,29.89,0,0,0,0.00
2013-10-26,61,52,43,54,48,41,93,85,73,29.98,29.83,0,0,0,0.00
2013-10-27,62,54,49,54,49,46,94,83,69,29.89,29.56,0,0,0,0.00
2013-10-28,67,58,53,52,48,43,80,69,47,29.71,29.50,0,0,0,0.00
2013-10-29,65,56,46,55,51,43,91,82,66,29.89,29.71,0,0,0,0.54
2013-10-30,62,52,43,54,47,41,95,83,68,29.98,29.83,0,0,0,0.00
2013-10-31,64,57,46,52,48,43,87,71,59,29.98,29.86,0,0,0,0.00
2013-11-1,65,55,46,52,45,39,79,68,50,29.95,29.80,0,0,0,0.04
2013-11-2,61,53,44,50,43,36,75,68,54,29.86,29.71,0,0,0,0.00
2013-11-3,64,54,44,50,39,30,84,61,33,29.89,29.68,0,0,0,0.00
2013-11-4,64,53,43,45,32,27,62,46,31,29.89,29.65,0,0,0,0.00
2013-11-5,61,52,43,45,36,28,66,54,44,30.03,29.89,0,0,0,0.00
2013-11-6,66,55,45,45,37,32,64,50,38,30.07,29.86,0,0,0,0.00
2013-11-7,62,54,49,48,38,32,65,54,45,29.98,29.89,0,0,0,0.00
2013-11-8,60,52,44,50,43,34,74,68,61,29.92,29.77,0,0,0,0.00
2013-11-9,61,54,47,52,47,39,81,74,66,29.89,29.80,0,0,0,0.00
2013-11-10,60,55,50,52,48,43,80,75,70,29.95,29.86,0,0,0,0.00
2013-11-11,63,56,49,54,48,43,82,75,63,29.98,29.80,0,0,0,0.00
2013-11-12,55,55,54,48,48,46,75,74,73,30.03,29.98,0,0,0,0.00
2013-11-15,48,48,47,41,41,41,74,74,74,29.65,29.62,0,0,0,0.00
2013-11-16,58,51,45,48,43,39,82,74,67,29.80,29.62,0,0,0,0.00
2013-11-17,58,52,47,52,45,41,84,77,71,29.95,29.80,0,0,0,0.00
2013-11-18,60,53,47,52,46,41,82,76,70,30.01,29.92,0,0,0,0.00
2013-11-19,62,56,49,54,49,43,83,77,69,29.98,29.80,0,0,0,0.00
2013-11-20,63,58,52,59,54,48,88,85,83,29.83,29.68,0,0,0,0.21
2013-11-21,58,53,45,55,45,36,88,74,44,29.80,29.62,0,0,0,0.21
2013-11-22,57,47,40,45,36,32,77,65,52,29.86,29.74,0,0,0,0.00
2013-11-23,58,50,42,46,40,32,76,67,59,29.95,29.80,0,0,0,0.00
2013-11-24,56,48,40,48,40,34,79,72,67,30.09,29.95,4,0,4,0.00
2013-11-25,58,50,41,48,42,36,82,72,62,30.12,30.03,4,4,4,0.00
2013-11-26,62,53,45,50,43,37,77,68,57,30.07,29.86,4,2,4,0.00
2013-11-27,62,54,47,48,43,39,75,66,56,29.86,29.65,0,0,0,0.00
2013-11-28,61,53,48,50,43,37,74,68,58,29.92,29.68,0,0,0,0.00
2013-11-29,59,52,44,50,44,37,80,73,62,30.03,29.89,0,0,0,0.00
2013-11-30,59,50,42,52,44,36,83,79,74,30.09,29.98,0,0,0,0.00
2013-12-1,59,50,42,54,44,37,85,78,70,30.15,30.01,0,0,0,0.00
2013-12-2,58,51,44,50,44,37,82,76,69,30.07,29.83,0,0,0,0.00
2013-12-3,60,51,40,48,39,27,84,65,42,29.83,29.65,0,0,0,0.00
2013-12-4,50,41,33,34,27,21,67,58,48,29.92,29.77,0,0,0,0.00
2013-12-5,48,37,30,28,23,16,61,56,45,30.01,29.89,0,0,0,0.00
2013-12-6,52,44,32,46,32,23,79,64,52,30.03,29.80,0,0,0,0.21
2013-12-7,53,45,34,48,33,21,83,63,39,30.07,29.74,0,0,0,0.00
2013-12-8,46,38,32,34,25,19,73,61,45,30.12,29.98,9,1,9,0.00
2013-12-9,52,37,28,28,21,16,66,53,30,30.18,30.09,6,2,6,0.00
2013-12-10,53,39,28,34,24,18,71,56,39,30.18,29.95,6,2,6,0.00
2013-12-11,54,42,32,36,28,23,69,57,41,30.03,29.92,4,2,4,0.00
2013-12-12,53,43,33,37,31,25,74,62,47,30.07,29.92,5,2,5,0.00
2013-12-13,50,41,33,43,35,27,83,75,66,30.15,30.01,5,2,5,0.00
2013-12-14,56,45,34,43,36,30,86,71,53,30.15,30.03,4,2,4,0.00
2013-12-15,59,46,35,46,34,28,79,64,45,30.15,29.95,4,1,4,0.00
2013-12-16,68,50,40,41,33,28,66,53,33,30.01,29.65,5,2,8,0.00
2013-12-17,61,49,42,41,34,28,61,55,40,29.95,29.80,3,1,4,0.00
2013-12-18,57,52,44,48,44,37,87,72,59,29.83,29.62,4,0,4,0.00
2013-12-19,58,47,38,43,35,27,89,64,35,29.74,29.56,9,2,10,0.00
2013-12-20,53,44,33,37,28,19,66,54,39,29.83,29.71,4,2,5,0.00
2013-12-21,54,44,35,39,31,23,81,61,46,29.89,29.77,4,2,5,0.00
2013-12-22,56,46,37,48,41,34,92,84,62,30.12,29.89,5,2,5,0.00
2013-12-23,57,47,38,46,41,37,95,80,60,30.18,30.09,5,1,5,0.00
2013-12-24,60,48,38,46,39,34,88,71,50,30.12,29.95,5,2,5,0.00
2013-12-25,63,49,38,41,36,30,76,61,44,30.07,29.95,4,1,4,0.00
2013-12-26,44,40,38,34,33,32,76,72,67,30.03,30.01,3,2,4,0.00
2013-12-27,65,51,37,39,34,27,67,52,35,30.01,29.89,3,1,4,0.00
2013-12-28,56,46,36,43,36,30,77,66,55,29.92,29.80,5,2,6,0.00
2013-12-29,60,48,35,37,32,27,75,53,38,29.98,29.86,4,2,5,0.00
2013-12-30,58,50,37,37,30,25,65,47,37,30.03,29.98,4,2,4,0.00
2013-12-31,56,51,36,41,36,23,72,54,47,30.07,29.92,4,1,4,0.00
2014-1-1,59,52,40,48,40,32,74,62,49,30.01,29.89,3,1,3,0.00
2014-1-2,60,55,49,46,42,36,71,59,52,29.92,29.83,3,1,3,0.00